Starlink 11367

operational
NORAD ID: 62097 Int'l Des: 2024-220 Owner: SPXS Country: US Constellation: starlink
LEOCIRCULAR

关于 Starlink 11367

正在加载描述...

实时位置

正在加载3D地球...

即将过境

高度历史

Altitude vs Time

uPlot chart will show altitude changes over time

两行轨道根数

1 62097U 24220K 25351.52230944 .00204525 00000-0 15511-2 0 9992
2 62097 42.9953 178.0590 0001071 157.0699 203.0217 15.70953700 62138
Epoch: Dec 17, 2025 • Age: 19 hours

当前状态

高度 355.6 km
速度 7.70 km/s
星下点 -6.92°S, 158.78°E
发射日期 Nov 25, 2024
运行时间 1 years
类型 internet

技术详情

分类 Payload
质量 960.00 kg
干质量 910.00 kg
总质量 960.00 kg
长度 0.30 m
直径 4.10 m
跨度 29.00 m
形状 Box + pan
制造商 SPXS
平台类型 Starlink V2MD
阶段状态 In Orbit
所有者/国家 SPXS/US

大型星座

Loading constellations...